Terug naar catalogus

COSMOS 1579 COOLANT

LostUNKNOWN
NORAD 27572·DEBRIS·🇷🇺 Russia

Gelanceerd Jun 29, 1984 vanaf Baikonur Cosmodrome

Loading…

Volgende Passages (komende 24 uur)

TLE

VerouderdSource: Space-Track

Epoch: Jan 23, 2018, 05:42 UTC

1 27572U 84069W   18023.23757616 -.00000024  00000-0  10000-3 0  9992
2 27572 101.2757  36.6114 0693755 353.1882   6.0487 11.29583020812775

Volg COSMOS 1579 COOLANT in realtime met AllMySat

Download on the App Store